Location: Northern Prairie Star Party
(53.2167°N, 112.5333°W)
Time: 23:19:03
(UTC-06:00)

Daily predictions for brighter satellites

Satellite Brightness Start Highest point End
(mag) Time Altitude Azimuth Time Altitude Azimuth Time Altitude Azimuth
Cosmos 923 Rocket 4.5 19:43:38 10° SW 19:48:54 69° WNW 19:54:14 10° NNE
SKYMED 2 3.5 19:44:37 10° NNE 19:48:59 74° ESE 19:53:19 10° S
FengYun 1-2 T 4.5 19:44:55 10° SE 19:50:12 50° ENE 19:55:30 10° N
Cosmos 2233 Rocket 4.0 19:44:11 10° S 19:50:30 80° E 19:56:51 10° NNE
In-Cosmos 22 4.4 19:46:33 10° N 19:52:14 56° ENE 19:57:54 10° SSE
Cosmos 2098 Rocket 4.4 19:49:51 10° SW 19:52:43 31° WNW 19:55:23 10° N
Cosmos 1607 4.0 19:46:59 10° SSW 19:53:05 66° SE 19:59:11 10° NE
NOSS 3-2 (C) 4.4 19:48:36 10° SSE 19:53:38 26° ESE 19:59:01 10° ENE
Lacrosse 4 Rocket 4.0 19:51:20 10° WNW 19:54:27 18° NNW 19:57:34 10° NNE
Cosmos 1408 Rocket 3.7 19:50:48 10° N 19:55:07 52° ENE 19:59:21 10° SSE
Cosmos 1346 4.3 19:54:23 10° NNE 19:56:52 23° ENE 19:59:21 10° SE
Meteor 1-21 Rocket 4.5 19:52:58 10° N 19:58:24 47° ENE 20:03:44 10° SE
Cosmos 2322 Rocket 4.5 19:54:46 10° WNW 19:58:51 20° NNW 20:02:59 10° NNE
NOAA 12 4.2 19:55:53 10° SSE 20:01:09 85° WSW 20:06:30 10° NNW
ATLAS CENTAUR R/B 3.7 19:57:54 10° WNW 20:01:29 25° WSW 20:04:48 10° S
COSMOS 2428 3.9 19:58:53 10° WSW 20:04:23 47° NW 20:09:56 10° NNE
Okean 3 Rocket 4.2 20:01:48 10° NNW 20:06:18 64° W 20:10:48 10° S
Aureole 2 Rocket 3.3 20:02:38 10° S 20:06:47 43° ESE 20:10:49 10° NE
Cosmos 1766 3.4 20:04:30 10° S 20:08:22 56° E 20:12:18 10° NNE
Cosmos 2237 Rocket 2.3 20:04:03 10° SSW 20:09:45 89° ESE 20:15:29 10° NNE
HJ-1C 3.3 20:06:31 10° SSE 20:09:53 78° ENE 20:13:17 10° NNW
Intercosmos 25 Rocket 4.4 20:04:30 10° SSW 20:11:16 75° W 20:15:27 10° N
Resurs 01 Rocket 1.6 20:08:59 10° SSE 20:13:27 84° ENE 20:17:57 10° NNW
Resurs 1-3 3.6 20:10:30 10° SSE 20:14:51 71° ENE 20:19:16 10° N
Meteor 1-29 3.7 20:12:30 10° NNE 20:15:43 32° E 20:18:54 10° SSE
ATLAS 5 CENTAUR R/B 2.9 20:13:14 10° S 20:17:10 25° ESE 20:21:22 10° ENE
Cosmos 482 Debris 3.3 20:20:05 10° WSW 20:22:10 58° SSE 20:24:11 18° E
Cosmos 1743 Rocket 3.8 20:18:21 10° N 20:22:44 50° ENE 20:27:03 10° SSE
CZ-2D R/B 3.5 20:19:35 10° SE 20:23:21 48° ENE 20:27:07 10° N
Cosmos 1980 4.0 20:17:48 10° SW 20:23:27 72° WNW 20:29:10 10° NNE
USA 215 3.8 20:19:17 10° ENE 20:25:18 37° SE 20:31:16 10° SSW
Cosmos 192 4.5 20:23:02 10° S 20:27:49 51° ESE 20:32:39 10° NE
SL-16 R/B 2.2 20:23:34 10° SSW 20:29:10 64° ESE 20:34:50 10° NE
Cosmos 1953 2.5 20:25:53 10° SSE 20:29:42 46° E 20:33:32 10° NNE
Cosmos 292 Rocket 4.2 20:26:43 10° SW 20:31:30 67° WNW 20:36:21 10° NNE
GP-B 4.0 20:32:07 10° NNE 20:36:03 29° E 20:38:50 16° SE
ATLAS CENTAUR R/B 4.4 20:30:08 10° SSW 20:36:26 55° ESE 20:56:22 10° NE
SeaSat 1 3.6 20:32:52 10° ENE 20:36:36 21° ESE 20:40:18 10° SSE
Helios 1A 3.4 20:32:45 10° S 20:36:55 64° WSW 20:41:06 10° NNW
COSMO-SKYMED 1 4.0 20:32:52 10° N 20:36:59 42° WNW 20:41:04 10° SW
Nadezhda 4 Rocket 4.0 20:31:35 10° N 20:37:55 73° ENE 20:44:09 10° SSE
ERS-1 Rocket 3.7 20:34:54 17° ESE 20:38:12 34° ENE 20:42:44 10° N
Meteor 1-28 Rocket 3.5 20:34:39 10° N 20:38:24 68° WNW 20:42:05 10° SSW
Cosmos 1452 Rocket 4.1 20:34:11 10° NNW 20:39:23 61° WSW 20:44:33 10° S
Cosmos 1805 3.3 20:36:18 10° S 20:40:10 57° E 20:44:04 10° NNE
H-2A R/B 2.7 20:37:11 10° SSE 20:41:05 70° ENE 20:44:58 10° N
Cosmos 1544 3.5 20:38:39 10° SSE 20:42:11 41° E 20:45:46 10° NNE
CZ-4B DEB 2.8 20:40:26 10° SSE 20:43:42 85° WSW 20:47:01 10° NNW
Cosmos 1092 Rocket 4.0 20:37:44 10° N 20:43:58 62° ENE 20:50:04 10° SSE
Cosmos 2219 Rocket 3.5 20:43:31 10° WSW 20:48:50 41° NW 20:54:12 10° NNE
ATLAS 3B R/B 3.5 20:41:38 10° WSW 20:49:04 58° NNW 20:56:12 10° NE
ALOS 2.4 20:45:50 10° SSE 20:50:30 79° WSW 20:55:13 10° NNW
CZ-4 DEB 3.7 20:56:06 29° ENE 20:56:06 29° ENE 20:58:50 10° N
FENGYUN 3A 3.8 20:51:47 10° S 20:57:10 75° WSW 21:02:36 10° NNW
Cosmos 2026 Rocket 4.2 20:53:33 10° N 20:59:27 48° ENE 21:03:21 21° SE
Cosmos 839 Rocket 4.4 20:51:51 10° NW 21:00:23 86° NE 21:05:19 21° SE
Cosmos 1470 3.1 20:59:51 24° SSE 21:01:43 41° E 21:05:24 10° NNE
Cosmos 1420 Rocket 4.4 20:57:09 10° NNW 21:02:25 67° WSW 21:07:40 10° SSE
Meteor 2-12 Rocket 4.4 20:56:39 10° S 21:02:49 83° E 21:09:01 10° NNE
COSMOS 2455 4.3 20:59:49 10° W 21:05:23 37° NNW 21:10:58 10° NE
Cosmos 1634 Rocket 4.2 20:59:36 10° SSE 21:05:29 45° E 21:11:21 10° NNE
Cosmos 1805 Rocket 4.3 21:01:40 10° N 21:05:43 32° ENE 21:06:27 30° E
NOSS 3-2 (A) 3.5 20:59:47 10° SW 21:05:59 75° SE 21:12:52 10° NE
Cosmos 1331 Rocket 4.3 21:01:39 10° NNW 21:06:50 49° ENE 21:09:10 30° ESE
Cosmos 2369 Rocket 2.1 21:01:24 10° NNW 21:07:05 82° ENE 21:10:43 23° SE
USA 186 1.2 21:06:59 60° SW 21:07:09 62° WSW 21:09:30 10° NNW
Cosmos 2263 4.3 21:03:49 10° NNW 21:09:38 68° NE 21:12:45 28° SE
H-2A R/B 3.0 21:08:55 29° E 21:09:41 31° ENE 21:13:39 10° N
CZ-4C R/B 2.8 21:04:31 10° WSW 21:10:08 62° NNW 21:16:34 10° NE
Cosmos 1758 3.7 21:07:15 10° SSW 21:11:20 68° WNW 21:15:28 10° N
USA 238 DEB 4.1 21:05:03 10° WSW 21:12:04 67° NW 21:19:07 10° NE
USA 238 4.1 21:05:08 10° WSW 21:12:10 67° NW 21:19:13 10° NE
YAOGAN 11 4.1 21:10:52 33° SE 21:12:34 59° ENE 21:16:48 10° N
Cosmos 1943 4.2 21:14:49 26° E 21:14:49 26° E 21:18:15 10° NE
Cosmos 1943 Rocket 2.5 21:08:58 10° NNW 21:14:30 51° NE 21:16:47 32° ESE
Cosmos 1733 3.4 21:14:32 44° ESE 21:15:03 48° E 21:18:47 10° NNE
Helios 1B rocket 3.2 21:11:10 10° N 21:15:13 55° WNW 21:19:14 10° SSW
Cosmos 1603 3.7 21:10:47 10° SSW 21:16:24 60° ESE 21:22:05 10° NE
Cosmos 2034 Rocket 4.3 21:11:29 10° SSW 21:17:44 71° WNW 21:24:07 10° N
ERBS 2.4 21:15:27 10° WNW 21:18:58 70° NNE 21:19:29 57° ENE
Cosmos 1633 Rocket 4.1 21:16:36 10° N 21:20:13 28° ENE 21:20:13 28° ENE
ASTEX 1 3.4 21:16:06 10° N 21:21:04 82° W 21:25:58 10° SSW
Cosmos 2195 Rocket 4.4 21:14:47 10° N 21:21:08 74° ENE 21:25:41 20° SSE
Cosmos 1269 Rocket 3.9 21:18:32 10° S 21:23:45 63° ESE 21:28:59 10° NNE
Cosmos 1674 3.4 21:20:09 10° NNW 21:23:57 55° W 21:26:54 16° S
Cosmos-2242 3.7 21:21:35 10° SSW 21:25:54 58° WNW 21:30:16 10° N
Terra 3.8 21:26:57 15° NE 21:26:57 15° NE 21:29:32 10° NNE
Cosmos 1048 Rocket 4.0 21:22:42 10° S 21:27:53 59° ESE 21:33:03 10° NNE
Cosmos 2333 Rocket 4.0 21:23:46 10° WSW 21:28:54 32° NW 21:34:04 10° NNE
Cosmos 2221 3.7 21:32:51 27° NE 21:32:51 27° NE 21:35:17 10° NNE
Cosmos 1500 Rocket 4.3 21:28:09 10° NNW 21:32:27 52° W 21:36:15 13° S
MetOp-B 4.5 21:32:20 40° ESE 21:33:33 47° ENE 21:38:42 10° N
H-2A R/B 3.5 21:34:03 21° ENE 21:34:13 21° NE 21:38:00 10° N
Meteor 1-11 4.2 21:28:54 10° NNW 21:34:46 79° ENE 21:37:32 33° SSE
Lacrosse 4 Rocket 4.2 21:33:00 10° NNW 21:34:58 12° N 21:36:55 10° NNE
Envisat 2.9 21:33:30 37° SSE 21:35:33 79° ENE 21:40:41 10° NNW
SJ-11-01 4.3 21:33:28 31° S 21:35:45 81° WSW 21:40:28 10° NNW
Cosmos 2151 2.9 21:31:40 10° NNW 21:35:55 82° W 21:37:16 42° S
Cosmos 1939 Rocket 2.7 21:35:38 60° SSE 21:36:20 83° ENE 21:40:21 10° NNW
Cosmos 1842 Rocket 3.5 21:32:42 10° SSW 21:37:03 84° W 21:41:27 10° N
Cosmos 1328 3.9 21:34:37 10° NNW 21:38:36 74° W 21:39:38 47° S
CENTAUR R/B 3.4 21:37:25 10° S 21:46:45 23° ENE 21:49:31 10° NE
NOSS 3-2 (C) 3.5 21:37:27 10° SW 21:43:45 88° NW 21:50:46 10° NE
Cosmos 1627 Rocket 4.5 21:37:36 10° NNW 21:43:48 82° W 21:47:58 22° S
Cosmos 1666 Rocket 3.8 21:40:03 10° N 21:44:11 51° ENE 21:44:11 51° ENE
Meteor 2-20 4.4 21:40:04 10° N 21:46:15 66° ENE 21:48:08 44° SE
Meteor 1-16 Rocket 4.0 21:45:36 50° SE 21:46:35 59° E 21:51:51 10° NNE
Cosmos 2058 2.7 21:44:32 10° NNW 21:48:40 87° WSW 21:48:56 78° S
Exosat Rocket 4.5 21:43:56 10° NNW 21:50:02 75° WSW 21:55:00 26° SSE
SL-14 R/B 3.2 21:46:48 10° NNW 21:50:51 87° W 21:50:54 87° SW
SPOT 5 2.6 21:54:43 66° NE 21:54:43 66° NE 21:58:51 10° N
Cosmos 2237 Rocket 4.2 21:49:48 10° W 21:54:34 27° NW 21:59:22 10° NNE
YAOGAN 6 3.7 21:55:47 37° NNE 21:55:47 37° NNE 21:58:11 10° N
SPOT 1/Viking Rocket 3.8 21:56:42 49° ENE 21:56:48 49° ENE 22:01:46 10° N
ATLAS 5 CENTAUR R/B 2.0 21:56:20 10° SW 22:01:17 78° NW 22:05:57 15° NE
Cosmos 158 Rocket 4.4 22:06:53 43° NE 22:06:53 43° NE 22:10:15 10° NNE
Cosmos 2180 Rocket 4.4 22:05:30 58° SE 22:06:11 61° E 22:12:15 10° NNE
USA 215 3.1 22:05:01 27° ENE 22:08:52 85° SSE 22:15:26 10° WSW
Cosmos 1626 3.9 22:07:07 10° N 22:08:57 26° N 22:08:57 26° N
GP-B 4.4 22:09:21 10° NNW 22:13:28 38° W 22:16:19 18° SW
SL-16 R/B 3.8 22:08:32 10° WSW 22:13:42 34° NW 22:18:54 10° NNE
SeaSat 1 2.4 22:09:41 10° NNE 22:14:40 81° WNW 22:19:36 10° SW
ERS-1 Rocket 3.9 22:14:56 30° SSW 22:16:54 44° W 22:21:44 10° NNW
MetOp-A 4.1 22:19:09 69° SSW 22:19:46 80° WSW 22:25:11 10° NNW
ARGOS 3.1 22:24:38 76° ENE 22:24:38 76° ENE 22:30:00 10° NNW
Cosmos 1656 Rocket 3.5 22:19:33 10° NNW 22:24:52 74° NE 22:24:52 74° NE
Sich 1 3.5 22:21:00 10° NNW 22:24:40 58° NW 22:24:40 58° NW
BREEZE-M DEB (TANK) 4.0 22:19:39 10° WSW 22:26:54 55° SSW 22:26:54 55° SSW
Cosmos 2279 Rocket 3.9 22:28:27 47° SSW 22:30:23 82° WNW 22:36:38 10° N
Cosmos 1980 Rocket 4.1 22:34:31 10° NNW 22:38:29 19° NNE 22:39:47 18° NE
NOAA 11 4.2 22:40:59 79° WNW 22:40:59 79° WNW 22:46:13 10° NNW
ATLAS 3B R/B 4.1 22:34:24 10° WNW 22:41:11 36° N 22:46:34 15° NE
Cosmos 2266 Rocket 3.9 22:35:33 10° N 22:41:59 89° W 22:42:18 82° S
H-2A R/B 3.3 22:46:04 40° W 22:46:04 40° W 22:49:53 10° NNW
Cosmos 2369 Rocket 4.1 22:46:19 10° NW 22:50:29 22° WSW 22:52:32 18° SW
Cosmos 1943 3.5 22:56:26 57° W 22:57:12 63° NW 23:02:49 10° NNE
Cosmos 1943 Rocket 3.2 22:53:00 10° NW 22:58:09 37° WSW 22:58:18 37° WSW
CZ-4C R/B 3.9 22:54:19 10° WNW 22:59:49 35° N 23:05:11 13° NE
Terra 3.1 23:05:50 36° N 23:05:50 36° N 23:08:40 10° NNW
SL-16 R/B 4.4 23:02:46 10° NNW 23:06:14 16° NNE 23:08:05 14° NE
Cosmos 2221 4.4 23:09:42 29° NW 23:09:42 29° NW 23:12:51 10° N
H-2A R/B 2.9 23:14:42 45° NNW 23:14:42 45° NNW 23:18:14 10° NNW
Lacrosse 4 Rocket 3.9 23:12:05 10° NNW 23:14:28 19° N 23:14:28 19° N
Cosmos 2322 Rocket 4.2 23:27:45 10° NNW 23:31:46 19° NNE 23:32:30 19° NE
CENTAUR R/B 2.8 23:27:03 10° WSW 23:33:45 68° NNW 23:40:47 10° NE
Cosmos 1697 Rocket 4.0 23:40:56 10° NNW 23:44:39 35° N 23:44:39 35° N
ATLAS 5 CENTAUR R/B 3.6 23:42:03 10° W 23:46:46 33° NNW 23:47:31 32° N
USA 215 3.5 23:52:23 63° NW 23:52:23 63° NW 23:58:17 10° W
